Flag Weather past 2 weeks in Nouakchott, Mauritania

Now
81 °F

Clear.


Feels Like: 82 °F
Forecast: N/A
Wind: 9 mph from Northwest

Location: Nouakchott Airport

Current Time: Oct 30, 2014 at 3:34:02 PM

Latest Report: Oct 30, 2014 at 3:00 PM


Visibility: 5 mi

Pressure: 29.86 "Hg

Humidity: 54%

Dew point: 63 °F

Location of NouakchottLocation

Historic Weather in Nouakchott — Graph

°F

Nouakchott temperature yesterday

Maximum temperature yesterday: 82 °F (at 12:00 PM)
Minimum temperature yesterday: 70 °F (at 7:30 AM)
Average temperature yesterday: 76 °F

Past Weeks' High & Low Weather Summary

 TemperatureHumidityPressure
High108 °F (Oct 22, 2:30 PM)89% (Oct 20, 11:30 PM)29.95 "Hg (Oct 20, 11:30 PM)
Low70 °F (Oct 26, 6:30 AM)6% (Oct 24, 3:30 PM)29.77 "Hg (Oct 18, 4:00 PM)
Average83 °F51%29.85 "Hg
* Reported Oct 15 2:00 PM — Oct 30 2:30 PM, Nouakchott, Weather by CustomWeather, © 2014

Note: Actual official high and low records may vary slightly from our data, if they occured in-between our weather recording intervals... More about our weather records

Advertising

Nouakchott weather history for previous 24 hours

 ConditionsComfort  
Time TempWeatherWind HumidityBarometerVisibility
2:30 PM
Oct 30
81 °FClear.10 mph54%29.86 "Hg5 mi
2:00 PM81 °FClear.10 mph58%29.89 "Hg5 mi
1:30 PM81 °FClear.9 mph58%29.89 "Hg5 mi
1:00 PM81 °FClear.10 mph58%29.89 "Hg5 mi
12:30 PM81 °FClear.9 mph58%29.92 "Hg5 mi
12:00 PM81 °FClear.8 mph58%29.92 "Hg5 mi
11:30 AM79 °FClear.8 mph61%29.92 "Hg5 mi
11:00 AM79 °FClear.9 mph61%29.92 "Hg5 mi
10:30 AM79 °FClear.8 mph65%29.92 "Hg5 mi
10:00 AM77 °FClear.8 mph65%29.92 "Hg5 mi
9:30 AM75 °FClear.6 mph69%29.92 "Hg5 mi
9:00 AM73 °FClear.7 mph69%29.89 "Hg5 mi
8:30 AM73 °FClear.6 mph74%29.89 "Hg5 mi
8:00 AM72 °FClear.3 mph78%29.89 "Hg5 mi
7:30 AM70 °FClear.5 mph83%29.86 "Hg5 mi
7:00 AM70 °FPassing clouds.8 mph83%29.86 "Hg5 mi
6:30 AM70 °FPassing clouds.5 mph83%29.86 "Hg5 mi
6:00 AM70 °FPassing clouds.3 mph83%29.86 "Hg5 mi
5:30 AM70 °FPassing clouds.3 mph83%29.86 "Hg5 mi
5:00 AM70 °FPassing clouds.2 mph83%29.86 "Hg5 mi
4:30 AM70 °FPassing clouds.5 mph88%29.86 "Hg5 mi
4:00 AM72 °FPassing clouds.3 mph83%29.86 "Hg5 mi
3:30 AM72 °FClear.5 mph83%29.86 "Hg5 mi
3:00 AM72 °FClear.7 mph83%29.86 "Hg5 mi
2:30 AM72 °FClear.5 mph78%29.86 "Hg5 mi
2:00 AM72 °FClear.6 mph83%29.86 "Hg5 mi
1:30 AM72 °FClear.7 mph83%29.86 "Hg5 mi
1:00 AM72 °FClear.6 mph83%29.89 "Hg5 mi
12:30 AM72 °FClear.6 mph83%29.89 "Hg5 mi
12:00 AM72 °FClear.6 mph83%29.89 "Hg5 mi
11:30 PM
Oct 29
72 °FClear.7 mph83%29.89 "Hg5 mi
11:00 PM73 °FClear.8 mph78%29.89 "Hg5 mi
10:30 PM73 °FClear.7 mph74%29.89 "Hg5 mi
10:00 PM73 °FClear.10 mph74%29.89 "Hg5 mi
9:30 PM73 °FClear.7 mph74%29.89 "Hg5 mi
9:00 PM73 °FClear.8 mph74%29.86 "Hg5 mi
8:30 PM73 °FClear.9 mph78%29.86 "Hg5 mi
8:00 PM73 °FClear.9 mph78%29.83 "Hg5 mi
7:30 PM73 °FClear.9 mph78%29.80 "Hg5 mi
7:00 PM73 °FClear.12 mph78%29.80 "Hg5 mi
6:30 PM75 °FClear.12 mph74%29.80 "Hg5 mi
6:00 PM75 °FClear.12 mph74%29.80 "Hg5 mi
5:30 PM77 °FClear.12 mph69%29.80 "Hg5 mi
5:00 PM79 °FClear.12 mph65%29.80 "Hg5 mi
4:30 PM79 °FClear.12 mph65%29.80 "Hg5 mi
4:00 PM79 °FClear.12 mph65%29.80 "Hg5 mi
3:30 PM81 °FClear.12 mph62%29.80 "Hg5 mi
3:00 PM81 °FClear.10 mph62%29.80 "Hg5 mi
Weather by CustomWeather, © 2014

See weather overviewHow to use our weather pages